TJS-3 AKM

Last updated on Nov. 18, 2019, 4:21 a.m. UTC

1 43917U 18110C   19320.97643919  .00000064  00000-0  00000-0 0  9998
2 43917   0.4476  97.4830 0004540 120.3484 248.4984  1.00274949  3247
UTC
Height (km)
Latitude
Longitude
Inclination
Orbital Period
UTC large
Height (km)
Speed (km/s)
/
Latitude / Longitude
Inclination (degrees)
Orbital Period (minutes)
Azimuth
Elevation
Range (km)
Doppler Factor
iOS Compass Heading
iOS Angle

Next 30 passes for location: Hong Kong

Rise time Rise Azimuth (degrees) Set time Set Azimuth (degrees) Duration Max altitude (degrees)

No matching passes for this satellites